74P/Smirnova-Chernykh (2018)

Japanese version
Home page
Updated on May 4, 2021

---------------------------------------------------------------------

* Profile

* Pictures

* Orbital Elements

Epoch 2018 Feb. 11.0 TT = JDT 2458160.5
T 2018 Jan. 26.70754 TT                                 Rudenko
q   3.5364683            (2000.0)            P               Q
n   0.11627461     Peri.   87.13530     -0.95561894     -0.27210265
a   4.1573137      Node    77.05574     +0.20253411     -0.88515138
e   0.1493381      Incl.    6.65392     +0.21394481     -0.37744825
P   8.48
From 5686 observations 1996 July 16-2020 June 16, mean residual 0".9.
     Nongravitational parameters A1 = +0.01, A2 = -0.0073.

* Finding Charts

* Magnitudes Graph

        m1 = 4.0 + 5 log d + 18.0 log r

---------------------------------------------------------------------

The orbital elements are published on M.P.E.C. 2020-M07.
The charts are made with StellaNavigator Ver.8 (AstroArts).
The magnitudes graphs are made with Comet for Windows.

---------------------------------------------------------------------

Copyright(C) Seiichi Yoshida (comet@aerith.net). All rights reserved.